This is the latest recevied weather packets stored in our database for station/object IW3HBX-13. If no packets are shown the sender has not sent any weather packets the latest 10 day(s).
| Time | Temp. | Humidity | Pressure | Rain* | Wind** | Luminosity | Snow |
|---|---|---|---|---|---|---|---|
| 1777901768 | 24.44° C | 49% | 1016.4 hPa | 0 mm | - | 370 W/m² | - |
| 1777901407 | 25° C | 47% | 1016.4 hPa | 0 mm | - | 503 W/m² | - |
| 1777901047 | 25° C | 47% | 1016.4 hPa | 0 mm | - | 750 W/m² | - |
| 1777900689 | 25° C | 48% | 1016.5 hPa | 0 mm | - | 774 W/m² | - |
| 1777900327 | 25° C | 48% | 1016.5 hPa | 0 mm | - | 790 W/m² | - |
| 1777899970 | 25.56° C | 47% | 1016.5 hPa | 0 mm | - | 788 W/m² | - |
| 1777899250 | 25.56° C | 48% | 1016.6 hPa | 0 mm | - | 626 W/m² | - |
| 1777898890 | 25° C | 48% | 1016.6 hPa | 0 mm | - | 867 W/m² | - |
| 1777898527 | 25° C | 49% | 1016.6 hPa | 0 mm | - | 669 W/m² | - |
| 1777898167 | 25° C | 49% | 1016.9 hPa | 0 mm | - | 360 W/m² | - |
| 1777897809 | 25° C | 50% | 1016.9 hPa | 0 mm | - | 709 W/m² | - |
| 1777897447 | 25° C | 51% | 1016.8 hPa | 0 mm | - | 716 W/m² | - |
| 1777897089 | 25.56° C | 50% | 1016.9 hPa | 0 mm | - | 805 W/m² | - |
| 1777896728 | 25° C | 51% | 1016.9 hPa | 0 mm | - | 640 W/m² | - |
| 1777896367 | 23.89° C | 52% | 1016.9 hPa | 0 mm | - | 766 W/m² | - |
| 1777895651 | 24.44° C | 50% | 1017 hPa | 0 mm | - | 850 W/m² | - |
| 1777895287 | 24.44° C | 48% | 1017 hPa | 0 mm | - | 891 W/m² | - |
| 1777894930 | 25.56° C | 48% | 1017 hPa | 0 mm | - | 869 W/m² | - |
| 1777894567 | 25° C | 47% | 1017.1 hPa | 0 mm | - | 774 W/m² | - |
| 1777894207 | 24.44° C | 50% | 1017.1 hPa | 0 mm | - | 807 W/m² | - |
| 1777893850 | 25° C | 48% | 1017.2 hPa | 0 mm | - | 766 W/m² | - |
| 1777893489 | 24.44° C | 48% | 1017.3 hPa | 0 mm | - | 766 W/m² | - |
| 1777893127 | 24.44° C | 50% | 1017.4 hPa | 0 mm | - | 823 W/m² | - |
| 1777892770 | 23.89° C | 51% | 1017.4 hPa | 0 mm | - | 841 W/m² | - |
| 1777892050 | 23.89° C | 49% | 1017.6 hPa | 0 mm | - | 869 W/m² | - |
* Rain latest hour (hover to see other rain measurements)
** Current wind speed in m/s (hover to see current wind gust speed)